Regional Weather Roundup
Issued by NWS Charleston, SC

Current Version | Previous Version | Graphics & Text | Print | Product List | Glossary On
Versions: 1 2 3 4 5 6 7 8 9 10 11 12 13 14 15 16 17 18 19 20 21 22 23 24 25 26 27 28 29 30 31 32 33 34 35 36 37 38 39 40 41 42 43 44 45 46 47 48 49 50
000 ASUS42 KCHS 161710 RWRCHS REGIONAL WEATHER ROUNDUP NATIONAL WEATHER SERVICE CHARLESTON SC 100 PM EDT TUE SEP 16 2014 NOTE: "FAIR" INDICATES FEW OR NO CLOUDS BELOW 12,000 FEET WITH NO SIGNIFICANT WEATHER AND/OR OBSTRUCTIONS TO VISIBILITY. NOT ALL STATIONS ARE QUALITY CONTROLLED BY THE NATIONAL WEATHER SERVICE. USE DATA WITH CAUTION...ESPECIALLY DEWPOINT OBSERVATIONS. SCZ027-030-031-034>040-042>050-161800- ...SOUTH CAROLINA... CITY SKY/WX TMP DP RH WIND PRES REMARKS N CHARLESTON PTSUNNY 87 74 64 W7 30.00F HX 95 WATERFRONT PRK N/A 81 N/A N/A SW5 N/A FORT JOHNSON NOT AVBL MOUNT PLEASANT PTSUNNY 75 73 94 S5 30.02F THUNDER FOG JOHNS ISLAND MOSUNNY 77 77 100 CALM 30.02F PINOPOLIS N/A 84 73 70 N3 29.96F HX 91 MONCKS CORNER N/A 84 77 79 CALM 30.01F HX 94 SUMMERVILLE PTSUNNY 84 73 70 W6 30.02F HX 91 BEAUFORT MCAS PTSUNNY 89 72 56 VRB3 30.01F HX 96 BEAUFORT ARPT PTSUNNY 86 75 70 CALM 30.00F HX 95 HILTON HEAD IS PTSUNNY 84 72 65 MISG 30.02F GEORGETOWN NOT AVBL WALTERBORO MOSUNNY 86 72 62 NW6 30.02F HX 92 ORANGEBURG PTSUNNY 82 71 69 W5 30.03F BARNWELL FAIR 84 73 70 NW5 30.03F HX 91 AIKEN PTSUNNY 82 73 74 NW5 30.06F MANNING PTSUNNY 84 72 65 N7 30.01F KINGSTREE NOT AVBL COLUMBIA PTSUNNY 86 69 56 NW6 30.02F HX 90 SUMTER MOSUNNY 82 68 63 NW2 30.01F FLORENCE CLOUDY 82 69 64 N5 30.02F MYRTLE BEACH CLOUDY 82 70 65 NW10 30.01F N MYRTLE BEACH PTSUNNY 82 71 69 NW7 30.00F $$ GAZ063-065-086>088-099>101-113>116-118-119-134-136>141-150-161800- ...GEORGIA... CITY SKY/WX TMP DP RH WIND PRES REMARKS SAVANNAH ARPT PTSUNNY 86 72 62 N5 30.02F HX 92 HUNTER AAF PTSUNNY 84 74 71 VRB2 30.00F HX 91 FORT STEWART PTSUNNY 84 73 70 NW6 30.02F HX 91 STATESBORO NOT AVBL SYLVANIA MOSUNNY 85 75 72 N6 30.04F HX 93 CLAXTON NOT AVBL THOMSON PTSUNNY 83 78 83 CALM 30.08F HX 94 AUGUSTA-BUSH PTSUNNY 84 73 69 NE6 30.02F HX 90 AUGUSTA-DANIEL LGT RAIN 83 72 69 NW5 30.04F SWAINSBORO PTSUNNY 86 77 74 NW8 30.04F HX 97 VIDALIA CLOUDY 81 73 78 N5 30.04F ALMA CLOUDY 82 73 74 VRB5 30.04F WAYCROSS CLOUDY 84 78 81 CALM 30.04F HX 94 JESUP CLOUDY 86 77 74 CALM 30.04F HX 97 BRUNSWICK CLOUDY 81 72 74 CALM 30.04F SAINT SIMONS PTSUNNY 82 73 74 NW7 30.03F $$ SCZ027-028-034-036>038-045-046-048>050-GAZ119-141-161800- ...LAKE AND SUPPLEMENTAL COASTAL OBSERVATIONS... STATION/POSITION TIME TEMP WIND PRES WAVE SWELL AIR SEA DIR/SP/G HT/PER HT/PER/DIR (UTC) (F) (DEG/KT/KT) (MB) (FT/S) (FT/S/D) UPR LAKE MARION NOT AVBL WINYAH BAY 1600 80 310/ 5 1017.0S LAKE MURRAY 1600 80 170/ 6/ 8 1016.3F ACE BASIN NERRS 1600 83 290/ 1 1017.0F FORT PULASKI 1600 1017.3F SAPELO ISLAND 1600 80 360/ 6 1018.0S $$ ANZ835-935-AMZ111-154-330-350-352-354-374-450-454-472-161800- ...C-MAN AND BUOY OBSERVATIONS... STATION/POSITION TIME TEMP WIND PRES WAVE SWELL AIR SEA DIR/SP/G HT/PER HT/PER/DIR (UTC) (F) (DEG/KT/KT) (MB) (FT/S) (FT/S/D) FOLLY BEACH CMAN 1600 81 130/ 2/ 2 1017.4F BUOY 41004 1700 80 84 340/ 6/ 8 1015.9F 2/ 8 2/ 8 BUOY 41008 1700 79 84 320/ 4/ 6 1016.6F 2/ 9 2/100/ 9 5E ST. MARYS GA 1600 84 N/A 2/ 8 FRYING PAN BUOY NOT AVBL BUOY 41025 1700 76 300/ 6/ 8 1016.1F 2/ 7 2/ 40/ 7 CAPE LOOKOUT NC 1600 79 CALM / 2 1016.9F BUOY 41002 1611 79 83 260/ 10/ 12 1017.0F 3/ 7 3/ 50/ 7 BUOY 41010 1700 83 85 290/ 8/ 10 1017.6F 2/ 9 2/ 10/ 9 BUOY 41012 NOT AVBL ST AUGUSTINE FL 1700 83 240/ 9/ 11 1017.6F CAPERS NEARSHORE 1600 86 CALM / 2 N/A FRIPP NEARSHORE NOT AVBL $$

USA.gov is the U.S. government's official web portal to all federal, state and local government web resources and services.